Погода в Нукусе

Погода в Нукусе : погода сейчас, прогноз погоды и архив. Всё, что Вы хотите узнать о погоде в Нукусе!

Поиск расширенной информации на нашем сайте:

Другие новости

Новости СМИ2

Главная страница сайта

Новости сайта

03.07.2017

Напоминаем, что на нашем специализированном сайте Метеоцентр.Азия вы можете получить высокодетализированные автоматические прогнозы погоды по пунктам России, СНГ и мира в авиационном формате (включающие направление и скорость ветра, видимость, явления погоды, количество и форму облачности, нижнюю и верхнюю границу облачности).

Рекомендуем: Дома и земельные участки: оформление прав на земельный участок.

Погода в Нукусе - сегодня

Время (UTC), дата Ветер
(°,м/с) 
Видим.   Явления Облачность Т
(°С)
Тd
(°С)
f(%) Тe
(°С)
Pmin
(гПа)
dP
(гПа)
Po
(мм)
O2
(г/м3)
Тmin Tmax R s Состояние
почвы
18 22.09.18 020 (С) 20000 м  зарница  8/1 1500 м кучево-дожд., средняя 
[Cb cap|Ac As]
+19.2 +12.8 66 +25  1018.2  1.5  757  283    +27       
21 22.09.18 350 (С) 20000 м    4/0 средняя 
[Ac trans]
+15.8 +12.2 79 +21  1018.8  0.4  757  286           
00 23.09.18 020 (С) 20000 м    3/0 средняя 
[Ac trans]
+13.2 +11.5 89 +17  1019.2  0.3  758  289           
03 23.09.18 020 (С) 20000 м    ясно 
+12.7 +11.2 91 +13  1020.2             
06 23.09.18 030 (СВ) 20000 м    ясно 
+20 +12.5 62 +24  1020.2  0.3  759  282  +11.9         
09 23.09.18 080 (В) 20000 м    3/3 1500 м 
[Cu hum]
+23.8 +10.6 43 +26  1019.1  -1.1  758  279           
12 23.09.18 350 (С) 20000 м    ясно 
+24.5 +9 37 +25  1018.1  -0.9  757  278           
15 23.09.18 350 (С) 20000 м    3/0 средняя 
[Ac trans]
+20.2 +9.5 50 +21  1018.6  0.4  757  282    +25       
18 23.09.18 040 (СВ) 20000 м    5/0 средняя 
[Ac trans]
+17.2 +8.4 56 +18  1019.5  0.7  758  286    +25       
21 23.09.18 050 (СВ) 20000 м    6/0 средняя 
[Ac trans]
+13.7 +5.9 59 +14  1019.4  -0.2  758  290           
00 24.09.18 020 (С) 20000 м    4/0 средняя 
[Ac trans]
+11.1 +4.1 62 +11  1019.2  -0.2  758  293           
03 24.09.18 нст () 20000 м    3/0 верхняя 
[Ci ing]
+12.2 +4.5 59 +13  1019.6  0.4             
06 24.09.18 050 (СВ) 20000 м    3/0 верхняя 
[Ci ing]
+21.9 +5.8 35 +22  1020.2  0.9  759  282  +10.7         
09 24.09.18 100 (В) 20000 м    3/0 верхняя 
[Ci ing]
+25.2 +3.2 24 +25  1019.2  -0.9  758  279           
12 24.09.18 080 (В) 20000 м    1/0 верхняя 
[Ci ing]
+26.2 +0.9 19 +26  1018.5  -0.7  757  278           
15 24.09.18 360 (С) 20000 м    1/0 верхняя 
[Ci fib]
+20.3 +4.1 34 +20  1018.9  0.3  758  284    +26.5       
18 24.09.18 020 (С) 20000 м    ясно 
+15.6 +4 46 +17  1019.5  0.4  758  288    +26.5       
21 24.09.18 010 (С) 20000 м    ясно 
+13.6 +3.4 50 +15  1019  -0.6  757  290           
00 25.09.18 010 (С) 20000 м    ясно 
+11.4 +4.3 62 +13  1018.5  -0.5  757  292           
03 25.09.18 нст () 20000 м    1/0 верхняя 
[Ci fib]
+11.7 +3.6 58 +13  1019  0.5             
06 25.09.18 нст () 20000 м    1/0 верхняя 
[Ci fib]
+23.8 +2.9 26 +24  1019  0.3  758  280  +9.5         
09 25.09.18 170 (Ю) 20000 м    1/0 верхняя 
[Ci fib]
+27.4 +2.7 20 +27  1017.7  -1.2  757  277           
12 25.09.18 180 (Ю) 20000 м    1/0 верхняя 
[Ci fib]
+28.2 +1.5 18 +28  1016.1  -1.6  756  276           
15 25.09.18 260 (З) 4000 м  мгла  ясно 
+22.6 +6.4 35 +23  1016.6  0.4  756  280    +28.6       
18 25.09.18 060 (СВ) 20000 м    ясно 
+20.8 +1.1 27 +21  1017.1  0.5  756  283    +28.6       
Время (UTC), дата Ветер
(°,м/с) 
Видим.   Явления Облачность Т
(°С)
Тd
(°С)
f(%) Тe
(°С)
Pmin
(гПа)
dP
(гПа)
Po
(мм)
O2
(г/м3)
Тmin Tmax R s Состояние
почвы

Для получения пояснительной информации подведите курсор к названию столбца.

ПОГОДА в Нукусе - архив

Всё, что Вы хотите узнать о погоде в Нукусе - удобно и подробно!

Выберите нужную дату (начиная с 1 января 2015* года) и нажмите кнопку "Найти".
Будут отображены архивные сводки погоды по пункту Нукус, начиная с указанной даты.


Отображать данные в формате CSV (для использования в таблицах Excel)


Внимание! Наш архив погоды предназначен исключительно для личного некоммерческого использования в познавательных целях. Если Вам необходимы официальные справки о состоянии погоды (для производственных, юридических, коммерческих и т.п. целей), обращайтесь в органы Росгидромета.

*Примечание: данная дата относится к архиву по метеостанциям СССР (Россия, СНГ, Балтия).
Архив по метеостанциям Зарубежной Европы и Азии (кроме Китая) хранится 10 дней, по другим регионам земного шара (Китай, Африка, Америка, Австралия, Океания) - 1 день.

Нукус - район местоположения метеостанции


Название, широта, долгота, высота метеостанции:
Нукус 42.4°ш. 59.6°д. 77 м над ур. моря [Узбекистан]

Дополнительная информация

В oтличие oт бoльшинства пoгoдных сайтoв мы публикуем пoдрoбную метеoинфoрмацию в детальнoм прoфессиoнальнoм фoрмате.

Характеристики температуры и влажнoсти вoздуха измеряются на высoте 2 м в тени вдали oт зданий и деревьев.
Скoрoсть ветра измеряется на высoте 10 м (на урoвне рoста челoвека скoрoсть ветра ниже в 1.5-2 раза). Если метеoстанция нахoдится в гoрoде или в лесу, тo скoрoсть ветра занижена на 2-4 м/с пo сравнению с oткрытым местoм. Скoрoсть ветра над акватoриями крупных рек и oзёр, а также на вершинах хoлмoв на 2-5 м/с выше, чем в oбычных услoвиях.
Атмoсфернoе давление в разных тoчках местнoсти мoжет значительнo oтличаться oт давления на метеoстанции, в зависимoсти oт услoвий рельефа (при пoдъёме на 10 м давление пoнижается примернo на 1 мм рт.ст.).